Terminal Aerodrome Forecast
Issued by NWS

Home | Current Version | Previous Version | Text Only | Print | Product List | Glossary On
Versions: 1 2 3 4 5 6 7 8 9 10 11 12 13 14 15 16 17 18 19 20
000
FTUS46 KSEW 291755
TAFHQM
TAF
KHQM 291755Z 2918/3018 17020G30KT P6SM BKN020 OVC030
      TEMPO 2918/2920 17035G45KT
     FM292300 18015G25KT 5SM -RA OVC020
     FM300300 19012KT P6SM -SHRA BKN015 OVC030
     FM300900 19010KT P6SM -SHRA BKN025 OVC050=

USA.gov is the U.S. government's official web portal to all federal, state and local government web resources and services.